TimeEST,TemperatureF,Dew PointF,Humidity,Sea Level PressureIn,VisibilityMPH,Wind Direction,Wind SpeedMPH,Gust SpeedMPH,PrecipitationIn,Events,Conditions,WindDirDegrees,DateUTC
12:54 AM,30.0,17.1,59,29.99,10.0,ENE,3.5,-,N/A,,Overcast,60,2012-12-25 05:54:00
1:54 AM,28.9,18.0,64,29.99,10.0,ENE,4.6,-,N/A,,Overcast,60,2012-12-25 06:54:00
2:02 AM,28.9,17.1,61,29.95,10.0,ENE,4.6,-,N/A,,Overcast,60,2012-12-25 07:02:00
2:54 AM,28.0,17.1,63,29.98,10.0,NE,6.9,-,N/A,,Overcast,50,2012-12-25 07:54:00
3:54 AM,28.0,19.0,69,29.98,5.0,ENE,5.8,-,0.00,Snow,Light Snow,60,2012-12-25 08:54:00
4:54 AM,26.1,19.9,78,29.98,4.0,NNE,5.8,-,0.00,Snow,Light Snow,30,2012-12-25 09:54:00
5:54 AM,25.0,21.0,85,29.99,2.5,NNE,8.1,-,0.01,Snow,Light Snow,20,2012-12-25 10:54:00
6:18 AM,25.0,21.9,88,29.95,3.0,NNE,8.1,-,0.01,Snow,Light Snow,30,2012-12-25 11:18:00
6:38 AM,25.0,21.9,88,29.95,2.5,NNE,8.1,-,0.01,Snow,Light Snow,30,2012-12-25 11:38:00
6:54 AM,25.0,21.9,88,30.00,2.0,NNE,8.1,-,0.01,Snow,Light Snow,20,2012-12-25 11:54:00
7:30 AM,25.0,21.9,88,29.96,2.0,NE,8.1,-,0.01,Snow,Light Snow,40,2012-12-25 12:30:00
7:39 AM,25.0,23.0,92,29.96,2.0,NNE,5.8,-,0.01,Snow,Light Snow,30,2012-12-25 12:39:00
7:47 AM,25.0,23.0,92,29.96,2.0,NNE,6.9,-,0.01,Snow,Light Snow,30,2012-12-25 12:47:00
7:54 AM,25.0,23.0,92,30.01,2.0,NNE,8.1,-,0.01,Snow,Light Snow,30,2012-12-25 12:54:00
8:31 AM,25.0,23.0,92,29.98,2.0,NNE,8.1,-,0.00,Snow,Light Snow,20,2012-12-25 13:31:00
8:54 AM,26.1,23.0,88,30.03,9.0,NNE,8.1,-,0.00,Snow,Light Snow,20,2012-12-25 13:54:00
9:25 AM,27.0,24.1,89,30.00,2.5,North,8.1,-,0.00,Snow,Light Snow,10,2012-12-25 14:25:00
9:54 AM,28.0,24.1,85,30.04,2.5,North,9.2,-,0.00,,Overcast,360,2012-12-25 14:54:00
10:01 AM,28.0,24.1,85,30.00,9.0,NNE,8.1,-,N/A,,Overcast,20,2012-12-25 15:01:00
10:54 AM,30.0,25.0,82,30.04,10.0,NNE,5.8,-,N/A,,Overcast,20,2012-12-25 15:54:00
11:10 AM,30.0,26.1,85,30.00,10.0,North,8.1,-,N/A,,Overcast,360,2012-12-25 16:10:00
11:22 AM,30.9,26.1,82,30.00,10.0,North,5.8,-,N/A,,Overcast,10,2012-12-25 16:22:00
11:54 AM,30.9,27.0,85,30.03,10.0,North,5.8,-,N/A,,Overcast,10,2012-12-25 16:54:00
12:54 PM,32.0,27.0,82,30.01,10.0,NNW,5.8,-,N/A,,Overcast,340,2012-12-25 17:54:00
1:08 PM,32.0,27.0,82,29.98,10.0,North,6.9,-,N/A,,Overcast,350,2012-12-25 18:08:00
1:37 PM,33.1,27.0,78,29.98,10.0,Calm,Calm,-,N/A,,Overcast,0,2012-12-25 18:37:00
1:54 PM,34.0,28.0,79,30.02,10.0,NNW,3.5,-,N/A,,Overcast,330,2012-12-25 18:54:00
2:26 PM,33.1,27.0,78,30.00,10.0,WNW,10.4,-,N/A,,Overcast,300,2012-12-25 19:26:00
2:54 PM,33.8,26.6,75,30.03,10.0,NW,10.4,-,N/A,,Overcast,310,2012-12-25 19:54:00
3:28 PM,32.0,24.1,73,30.04,10.0,NW,12.7,-,N/A,,Scattered Clouds,310,2012-12-25 20:28:00
3:54 PM,32.0,23.0,69,30.08,10.0,NW,12.7,-,N/A,,Clear,320,2012-12-25 20:54:00
4:54 PM,28.9,21.0,72,30.10,10.0,NW,12.7,-,N/A,,Clear,320,2012-12-25 21:54:00
5:54 PM,28.9,19.9,69,30.11,10.0,NNW,11.5,-,N/A,,Clear,330,2012-12-25 22:54:00
6:54 PM,28.0,19.9,72,30.15,10.0,NW,10.4,-,N/A,,Clear,320,2012-12-25 23:54:00
7:54 PM,26.1,19.0,75,30.17,10.0,NW,10.4,-,N/A,,Clear,310,2012-12-26 00:54:00
8:54 PM,26.1,18.0,71,30.19,10.0,NW,11.5,-,N/A,,Clear,320,2012-12-26 01:54:00
9:54 PM,26.1,16.0,66,30.20,10.0,NW,11.5,-,N/A,,Clear,320,2012-12-26 02:54:00
10:54 PM,24.1,15.1,69,30.22,10.0,NW,8.1,-,N/A,,Clear,310,2012-12-26 03:54:00
11:54 PM,23.0,12.9,65,30.22,10.0,NW,4.6,-,N/A,,Clear,310,2012-12-26 04:54:00